TimeEST,TemperatureF,Dew PointF,Humidity,Sea Level PressureIn,VisibilityMPH,Wind Direction,Wind SpeedMPH,Gust SpeedMPH,PrecipitationIn,Events,Conditions,WindDirDegrees,DateUTC
12:53 AM,32.0,18.0,56,30.15,10.0,NE,4.6,-,N/A,,Clear,50,2012-11-25 05:53:00
1:53 AM,30.9,18.0,59,30.16,10.0,NE,3.5,-,N/A,,Clear,50,2012-11-25 06:53:00
2:53 AM,27.0,19.0,72,30.17,10.0,Calm,Calm,-,N/A,,Clear,0,2012-11-25 07:53:00
3:53 AM,26.1,19.0,75,30.18,10.0,Calm,Calm,-,N/A,,Clear,0,2012-11-25 08:53:00
4:53 AM,26.1,19.0,75,30.19,10.0,Calm,Calm,-,N/A,,Clear,0,2012-11-25 09:53:00
5:53 AM,25.0,19.0,78,30.20,10.0,Calm,Calm,-,N/A,,Clear,0,2012-11-25 10:53:00
7:53 AM,26.1,19.9,78,30.24,10.0,Calm,Calm,-,N/A,,Clear,0,2012-11-25 12:53:00
8:53 AM,35.1,23.0,61,30.25,10.0,SSW,3.5,-,N/A,,Clear,200,2012-11-25 13:53:00
9:53 AM,39.9,21.9,49,30.24,10.0,SW,4.6,-,N/A,,Clear,220,2012-11-25 14:53:00
10:53 AM,44.1,21.9,42,30.22,10.0,WSW,6.9,-,N/A,,Clear,240,2012-11-25 15:53:00
11:53 AM,46.9,19.9,34,30.19,10.0,WSW,8.1,-,N/A,,Clear,250,2012-11-25 16:53:00
12:53 PM,50.0,19.9,31,30.15,10.0,WSW,10.4,-,N/A,,Clear,250,2012-11-25 17:53:00
1:53 PM,51.1,19.9,29,30.12,10.0,WSW,10.4,-,N/A,,Clear,250,2012-11-25 18:53:00
2:53 PM,53.1,19.9,27,30.11,10.0,West,8.1,-,N/A,,Clear,260,2012-11-25 19:53:00
3:53 PM,53.1,19.9,27,30.09,10.0,SSW,6.9,-,N/A,,Clear,210,2012-11-25 20:53:00
4:53 PM,50.0,21.0,32,30.11,10.0,SW,9.2,-,N/A,,Clear,230,2012-11-25 21:53:00
5:53 PM,46.0,21.0,37,30.12,10.0,Calm,Calm,-,N/A,,Clear,0,2012-11-25 22:53:00
6:53 PM,45.0,21.0,39,30.14,10.0,SSW,3.5,-,N/A,,Clear,200,2012-11-25 23:53:00
7:53 PM,43.0,21.9,43,30.15,10.0,SSW,3.5,-,N/A,,Clear,210,2012-11-26 00:53:00
8:53 PM,41.0,21.9,47,30.16,10.0,Calm,Calm,-,N/A,,Clear,0,2012-11-26 01:53:00
9:53 PM,42.1,23.0,47,30.15,10.0,Calm,Calm,-,N/A,,Clear,0,2012-11-26 02:53:00
10:53 PM,39.9,23.0,51,30.14,10.0,SSW,3.5,-,N/A,,Clear,210,2012-11-26 03:53:00
11:53 PM,39.0,23.0,53,30.14,10.0,SSW,3.5,-,N/A,,Clear,210,2012-11-26 04:53:00